sat.trackr.live / text

‹ back to catalog

STARLINK-33960

NORAD 63966 · 2025-099Q

PAYLOAD ACTIVE UNKNOWN

§ Identity

Operator
Country
US
Launch date
2025-05-13
Launch site
AFETR
Launch vehicle
Mass (kg)
RCS (m²)

Purposes: comms

External: N2YO · Heavens-Above · Gunter

§ Orbital elements

Epoch: 2026-05-25T03:45:13.360032Z

Period
94.27 min
Inclination
43.0016°
Eccentricity
0.0001408
Mean motion
15.27595979 rev/d
Perigee alt
482.0 km
Apogee alt
484.0 km
Semi-major
6,861.1 km
B*
8.1715e-4
RAAN
104.1335°
Arg perigee
268.9198°
Mean anomaly
91.1492°
Rev number
5,903

§ Raw data

STARLINK-339601 63966U 25099Q   26145.15640463  .00022303  00000+0  81715-3 0  99962 63966  43.0016 104.1335 0001408 268.9198  91.1492 15.27595979 59031

JSON: /api/v1/satellites/63966 · /tle

For live sub-satellite position, see the globe view (requires WebGL).

§ Visibility from observer

Set your observer location to see the next 7 days of passes ≥ 10°. The values pass through the URL so the page stays shareable.

No JS? Fill the form by hand. The geolocation button needs JavaScript.